Year,Month,Day,Hour,Minute,Value (Times are PST for temperature in C)
2017,08,22,00,00,21.00
2017,08,22,00,01,20.90
2017,08,22,00,02,20.90
2017,08,22,00,03,20.80
2017,08,22,00,04,20.80
2017,08,22,00,05,20.80
2017,08,22,00,06,20.70
2017,08,22,00,07,20.70
2017,08,22,00,08,20.60
2017,08,22,00,09,20.50
2017,08,22,00,10,20.50
2017,08,22,00,11,20.40
2017,08,22,00,12,20.40
2017,08,22,00,13,20.30
2017,08,22,00,14,20.30
2017,08,22,00,15,20.30
2017,08,22,00,16,20.20
2017,08,22,00,17,20.20
2017,08,22,00,18,20.20
2017,08,22,00,19,20.10
2017,08,22,00,20,20.10
2017,08,22,00,21,20.10
2017,08,22,00,22,20.00
2017,08,22,00,23,20.00
2017,08,22,00,24,20.00
2017,08,22,00,25,19.90
2017,08,22,00,26,19.90
2017,08,22,00,27,19.90
2017,08,22,00,28,19.80
2017,08,22,00,29,19.80
2017,08,22,00,30,19.80
2017,08,22,00,31,19.80
2017,08,22,00,32,19.80
2017,08,22,00,33,19.80
2017,08,22,00,34,19.70
2017,08,22,00,35,19.70
2017,08,22,00,36,19.70
2017,08,22,00,37,19.70
2017,08,22,00,38,19.70
2017,08,22,00,39,19.70
2017,08,22,00,40,19.60
2017,08,22,00,41,19.60
2017,08,22,00,42,19.60
2017,08,22,00,43,19.50
2017,08,22,00,44,19.50
2017,08,22,00,45,19.40
2017,08,22,00,46,19.40
2017,08,22,00,47,19.30
2017,08,22,00,48,19.30
2017,08,22,00,49,19.30
2017,08,22,00,50,19.20
2017,08,22,00,51,19.20
2017,08,22,00,52,19.20
2017,08,22,00,53,19.10
2017,08,22,00,54,19.10
2017,08,22,00,55,19.10
2017,08,22,00,56,19.00
2017,08,22,00,57,19.00
2017,08,22,00,58,18.90
2017,08,22,00,59,18.90
2017,08,22,01,00,18.90
2017,08,22,01,01,18.80
2017,08,22,01,02,18.80
2017,08,22,01,03,18.80
2017,08,22,01,04,18.80
2017,08,22,01,05,18.80
2017,08,22,01,06,18.80
2017,08,22,01,07,18.80
2017,08,22,01,08,18.70
2017,08,22,01,09,18.70
2017,08,22,01,10,18.70
2017,08,22,01,11,18.70
2017,08,22,01,12,18.70
2017,08,22,01,13,18.70
2017,08,22,01,14,18.70
2017,08,22,01,15,18.60
2017,08,22,01,16,18.60
2017,08,22,01,17,18.60
2017,08,22,01,18,18.60
2017,08,22,01,19,18.50
2017,08,22,01,20,18.50
2017,08,22,01,21,18.40
2017,08,22,01,22,18.40
2017,08,22,01,23,18.40
2017,08,22,01,24,18.30
2017,08,22,01,25,18.30
2017,08,22,01,26,18.30
2017,08,22,01,27,18.20
2017,08,22,01,28,18.20
2017,08,22,01,29,18.20
2017,08,22,01,30,18.20
2017,08,22,01,31,18.10
2017,08,22,01,32,18.10
2017,08,22,01,33,18.10
2017,08,22,01,34,18.10
2017,08,22,01,35,18.00
2017,08,22,01,36,18.00
2017,08,22,01,37,18.00
2017,08,22,01,38,17.90
2017,08,22,01,39,17.90
2017,08,22,01,40,17.90
2017,08,22,01,41,17.90
2017,08,22,01,42,17.90
2017,08,22,01,43,17.90
2017,08,22,01,44,17.90
2017,08,22,01,45,17.90
2017,08,22,01,46,17.90
2017,08,22,01,47,17.90
2017,08,22,01,48,17.90
2017,08,22,01,49,17.80
2017,08,22,01,50,17.80
2017,08,22,01,51,17.80
2017,08,22,01,52,17.80
2017,08,22,01,53,17.80
2017,08,22,01,54,17.70
2017,08,22,01,55,17.70
2017,08,22,01,56,17.70
2017,08,22,01,57,17.70
2017,08,22,01,58,17.60
2017,08,22,01,59,17.60
2017,08,22,02,00,17.60
2017,08,22,02,01,17.60
2017,08,22,02,02,17.60
2017,08,22,02,03,17.50
2017,08,22,02,04,17.50
2017,08,22,02,05,17.40
2017,08,22,02,06,17.40
2017,08,22,02,07,17.40
2017,08,22,02,08,17.40
2017,08,22,02,09,17.40
2017,08,22,02,10,17.40
2017,08,22,02,11,17.40
2017,08,22,02,12,17.30
2017,08,22,02,13,17.30
2017,08,22,02,14,17.30
2017,08,22,02,15,17.30
2017,08,22,02,16,17.30
2017,08,22,02,17,17.20
2017,08,22,02,18,17.20
2017,08,22,02,19,17.20
2017,08,22,02,20,17.20
2017,08,22,02,21,17.10
2017,08,22,02,22,17.10
2017,08,22,02,23,17.10
2017,08,22,02,24,17.10
2017,08,22,02,25,17.10
2017,08,22,02,26,17.00
2017,08,22,02,27,17.00
2017,08,22,02,28,17.00
2017,08,22,02,29,17.00
2017,08,22,02,30,17.00
2017,08,22,02,31,17.00
2017,08,22,02,32,17.00
2017,08,22,02,33,17.00
2017,08,22,02,34,17.00
2017,08,22,02,35,17.00
2017,08,22,02,36,17.00
2017,08,22,02,37,17.00
2017,08,22,02,38,17.00
2017,08,22,02,39,17.00
2017,08,22,02,40,17.00
2017,08,22,02,41,17.00
2017,08,22,02,42,17.00
2017,08,22,02,43,17.00
2017,08,22,02,44,17.00
2017,08,22,02,45,17.00
2017,08,22,02,46,17.00
2017,08,22,02,47,17.00
2017,08,22,02,48,17.00
2017,08,22,02,49,17.00
2017,08,22,02,50,17.00
2017,08,22,02,51,17.00
2017,08,22,02,52,17.10
2017,08,22,02,53,17.10
2017,08,22,02,54,17.20
2017,08,22,02,55,17.20
2017,08,22,02,56,17.30
2017,08,22,02,57,17.30
2017,08,22,02,58,17.40
2017,08,22,02,59,17.50
2017,08,22,03,00,17.60
2017,08,22,03,01,17.70
2017,08,22,03,02,17.80
2017,08,22,03,03,17.90
2017,08,22,03,04,18.00
2017,08,22,03,05,18.10
2017,08,22,03,06,18.20
2017,08,22,03,07,18.40
2017,08,22,03,08,18.50
2017,08,22,03,09,18.60
2017,08,22,03,10,18.70
2017,08,22,03,11,18.80
2017,08,22,03,12,19.00
2017,08,22,03,13,19.00
2017,08,22,03,14,19.10
2017,08,22,03,15,19.20
2017,08,22,03,16,19.30
2017,08,22,03,17,19.30
2017,08,22,03,18,19.40
2017,08,22,03,19,19.40
2017,08,22,03,20,19.40
2017,08,22,03,21,19.50
2017,08,22,03,22,19.50
2017,08,22,03,23,19.50
2017,08,22,03,24,19.60
2017,08,22,03,25,19.60
2017,08,22,03,26,19.60
2017,08,22,03,27,19.60
2017,08,22,03,28,19.70
2017,08,22,03,29,19.70
2017,08,22,03,30,19.70
2017,08,22,03,31,19.70
2017,08,22,03,32,19.70
2017,08,22,03,33,19.70
2017,08,22,03,34,19.70
2017,08,22,03,35,19.80
2017,08,22,03,36,19.80
2017,08,22,03,37,19.80
2017,08,22,03,38,19.90
2017,08,22,03,39,19.90
2017,08,22,03,40,19.90
2017,08,22,03,41,20.00
2017,08,22,03,42,20.00
2017,08,22,03,43,20.10
2017,08,22,03,44,20.10
2017,08,22,03,45,20.10
2017,08,22,03,46,20.10
2017,08,22,03,47,20.20
2017,08,22,03,48,20.20
2017,08,22,03,49,20.20
2017,08,22,03,50,20.20
2017,08,22,03,51,20.20
2017,08,22,03,52,20.30
2017,08,22,03,53,20.30
2017,08,22,03,54,20.30
2017,08,22,03,55,20.30
2017,08,22,03,56,20.30
2017,08,22,03,57,20.30
2017,08,22,03,58,20.40
2017,08,22,03,59,20.40
2017,08,22,04,00,20.40
2017,08,22,04,01,20.40
2017,08,22,04,02,20.40
2017,08,22,04,03,20.40
2017,08,22,04,04,20.40
2017,08,22,04,05,20.40
2017,08,22,04,06,20.40
2017,08,22,04,07,20.30
2017,08,22,04,08,20.30
2017,08,22,04,09,20.20
2017,08,22,04,10,20.20
2017,08,22,04,11,20.10
2017,08,22,04,12,20.10
2017,08,22,04,13,20.00
2017,08,22,04,14,20.00
2017,08,22,04,15,19.90
2017,08,22,04,16,19.80
2017,08,22,04,17,19.70
2017,08,22,04,18,19.70
2017,08,22,04,19,19.60
2017,08,22,04,20,19.50
2017,08,22,04,21,19.50
2017,08,22,04,22,19.40
2017,08,22,04,23,19.40
2017,08,22,04,24,19.30
2017,08,22,04,25,19.30
2017,08,22,04,26,19.30
2017,08,22,04,27,19.30
2017,08,22,04,28,19.30
2017,08,22,04,29,19.30
2017,08,22,04,30,19.30
2017,08,22,04,31,19.30
2017,08,22,04,32,19.30
2017,08,22,04,33,19.40
2017,08,22,04,34,19.40
2017,08,22,04,35,19.40
2017,08,22,04,36,19.40
2017,08,22,04,37,19.50
2017,08,22,04,38,19.50
2017,08,22,04,39,19.60
2017,08,22,04,40,19.60
2017,08,22,04,41,19.70
2017,08,22,04,42,19.70
2017,08,22,04,43,19.70
2017,08,22,04,44,19.70
2017,08,22,04,45,19.70
2017,08,22,04,46,19.70
2017,08,22,04,47,19.80
2017,08,22,04,48,19.70
2017,08,22,04,49,19.70
2017,08,22,04,50,19.70
2017,08,22,04,51,19.70
2017,08,22,04,52,19.70
2017,08,22,04,53,19.70
2017,08,22,04,54,19.70
2017,08,22,04,55,19.70
2017,08,22,04,56,19.60
2017,08,22,04,57,19.60
2017,08,22,04,58,19.60
2017,08,22,04,59,19.60
2017,08,22,05,00,19.60
2017,08,22,05,01,19.60
2017,08,22,05,02,19.50
2017,08,22,05,03,19.50
2017,08,22,05,04,19.50
2017,08,22,05,05,19.40
2017,08,22,05,06,19.40
2017,08,22,05,07,19.30
2017,08,22,05,08,19.30
2017,08,22,05,09,19.20
2017,08,22,05,10,19.10
2017,08,22,05,11,19.00
2017,08,22,05,12,18.90
2017,08,22,05,13,18.80
2017,08,22,05,14,18.70
2017,08,22,05,15,18.60
2017,08,22,05,16,18.50
2017,08,22,05,17,18.40
2017,08,22,05,18,18.40
2017,08,22,05,19,18.30
2017,08,22,05,20,18.20
2017,08,22,05,21,18.20
2017,08,22,05,22,18.10
2017,08,22,05,23,18.00
2017,08,22,05,24,18.00
2017,08,22,05,25,17.90
2017,08,22,05,26,17.90
2017,08,22,05,27,17.80
2017,08,22,05,28,17.80
2017,08,22,05,29,17.70
2017,08,22,05,30,17.70
2017,08,22,05,31,17.70
2017,08,22,05,32,17.60
2017,08,22,05,33,17.60
2017,08,22,05,34,17.60
2017,08,22,05,35,17.50
2017,08,22,05,36,17.50
2017,08,22,05,37,17.50
2017,08,22,05,38,17.40
2017,08,22,05,39,17.40
2017,08,22,05,40,17.40
2017,08,22,05,41,17.40
2017,08,22,05,42,17.30
2017,08,22,05,43,17.30
2017,08,22,05,44,17.30
2017,08,22,05,45,17.30
2017,08,22,05,46,17.30
2017,08,22,05,47,17.30
2017,08,22,05,48,17.30
2017,08,22,05,49,17.20
2017,08,22,05,50,17.20
2017,08,22,05,51,17.20
2017,08,22,05,52,17.20
2017,08,22,05,53,17.20
2017,08,22,05,54,17.20
2017,08,22,05,55,17.20
2017,08,22,05,56,17.10
2017,08,22,05,57,17.10
2017,08,22,05,58,17.10
2017,08,22,05,59,17.10
2017,08,22,06,00,17.00
2017,08,22,06,01,17.00
2017,08,22,06,02,16.90
2017,08,22,06,03,16.90
2017,08,22,06,04,16.90
2017,08,22,06,05,16.90
2017,08,22,06,06,16.90
2017,08,22,06,07,16.80
2017,08,22,06,08,16.80
2017,08,22,06,09,16.80
2017,08,22,06,10,16.80
2017,08,22,06,11,16.80
2017,08,22,06,12,16.80
2017,08,22,06,13,16.80
2017,08,22,06,14,16.80
2017,08,22,06,15,16.70
2017,08,22,06,16,16.70
2017,08,22,06,17,16.70
2017,08,22,06,18,16.70
2017,08,22,06,19,16.70
2017,08,22,06,20,16.70
2017,08,22,06,21,16.70
2017,08,22,06,22,16.70
2017,08,22,06,23,16.70
2017,08,22,06,24,16.60
2017,08,22,06,25,16.60
2017,08,22,06,26,16.60
2017,08,22,06,27,16.60
2017,08,22,06,28,16.60
2017,08,22,06,29,16.60
2017,08,22,06,30,16.60
2017,08,22,06,31,16.60
2017,08,22,06,32,16.60
2017,08,22,06,33,16.50
2017,08,22,06,34,16.50
2017,08,22,06,35,16.50
2017,08,22,06,36,16.40
2017,08,22,06,37,16.40
2017,08,22,06,38,16.40
2017,08,22,06,39,16.40
2017,08,22,06,40,16.50
2017,08,22,06,41,16.50
2017,08,22,06,42,16.40
2017,08,22,06,43,16.50
2017,08,22,06,44,16.40
2017,08,22,06,45,16.40
2017,08,22,06,46,16.40
2017,08,22,06,47,16.40
2017,08,22,06,48,16.40
2017,08,22,06,49,16.40
2017,08,22,06,50,16.40
2017,08,22,06,51,16.50
2017,08,22,06,52,16.50
2017,08,22,06,53,16.50
2017,08,22,06,54,16.50
2017,08,22,06,55,16.50
2017,08,22,06,56,16.50
2017,08,22,06,57,16.50
2017,08,22,06,58,16.50
2017,08,22,06,59,16.60
2017,08,22,07,00,16.60
2017,08,22,07,01,16.60
2017,08,22,07,02,16.60
2017,08,22,07,03,16.60
2017,08,22,07,04,16.70
2017,08,22,07,05,16.70
2017,08,22,07,06,16.70
2017,08,22,07,07,16.70
2017,08,22,07,08,16.70
2017,08,22,07,09,16.80
2017,08,22,07,10,16.80
2017,08,22,07,11,16.80
2017,08,22,07,12,16.80
2017,08,22,07,13,16.90
2017,08,22,07,14,16.90
2017,08,22,07,15,16.90
2017,08,22,07,16,17.00
2017,08,22,07,17,17.00
2017,08,22,07,18,17.10
2017,08,22,07,19,17.10
2017,08,22,07,20,17.10
2017,08,22,07,21,17.20
2017,08,22,07,22,17.20
2017,08,22,07,23,17.20
2017,08,22,07,24,17.30
2017,08,22,07,25,17.30
2017,08,22,07,26,17.30
2017,08,22,07,27,17.40
2017,08,22,07,28,17.40
2017,08,22,07,29,17.40
2017,08,22,07,30,17.50
2017,08,22,07,31,17.50
2017,08,22,07,32,17.60
2017,08,22,07,33,17.60
2017,08,22,07,34,17.70
2017,08,22,07,35,17.80
2017,08,22,07,36,17.80
2017,08,22,07,37,17.80
2017,08,22,07,38,17.90
2017,08,22,07,39,18.00
2017,08,22,07,40,18.00
2017,08,22,07,41,18.10
2017,08,22,07,42,18.20
2017,08,22,07,43,18.30
2017,08,22,07,44,18.30
2017,08,22,07,45,18.40
2017,08,22,07,46,18.40
2017,08,22,07,47,18.50
2017,08,22,07,48,18.60
2017,08,22,07,49,18.60
2017,08,22,07,50,18.70
2017,08,22,07,51,18.80
2017,08,22,07,52,18.90
2017,08,22,07,53,19.10
2017,08,22,07,54,19.20
2017,08,22,07,55,19.40
2017,08,22,07,56,19.50
2017,08,22,07,57,19.70
2017,08,22,07,58,19.80
2017,08,22,07,59,20.00
2017,08,22,08,00,20.10
2017,08,22,08,01,20.20
2017,08,22,08,02,20.30
2017,08,22,08,03,20.40
2017,08,22,08,04,20.50
2017,08,22,08,05,20.60
2017,08,22,08,06,20.60
2017,08,22,08,07,20.70
2017,08,22,08,08,20.70
2017,08,22,08,09,20.80
2017,08,22,08,10,20.80
2017,08,22,08,11,20.90
2017,08,22,08,12,20.90
2017,08,22,08,13,21.00
2017,08,22,08,14,21.10
2017,08,22,08,15,21.10
2017,08,22,08,16,21.20
2017,08,22,08,17,21.20
2017,08,22,08,18,21.30
2017,08,22,08,19,21.30
2017,08,22,08,20,21.40
2017,08,22,08,21,21.40
2017,08,22,08,22,21.40
2017,08,22,08,23,21.50
2017,08,22,08,24,21.60
2017,08,22,08,25,21.60
2017,08,22,08,26,21.70
2017,08,22,08,27,21.70
2017,08,22,08,28,21.70
2017,08,22,08,29,21.80
2017,08,22,08,30,21.80
2017,08,22,08,31,21.80
2017,08,22,08,32,21.80
2017,08,22,08,33,21.80
2017,08,22,08,34,21.80
2017,08,22,08,35,21.80
2017,08,22,08,36,21.80
2017,08,22,08,37,21.80
2017,08,22,08,38,21.80
2017,08,22,08,39,21.80
2017,08,22,08,40,21.80
2017,08,22,08,41,21.80
2017,08,22,08,42,21.80
2017,08,22,08,43,21.80
2017,08,22,08,44,21.80
2017,08,22,08,45,21.80
2017,08,22,08,46,21.80
2017,08,22,08,47,21.70
2017,08,22,08,48,21.70
2017,08,22,08,49,21.70
2017,08,22,08,50,21.60
2017,08,22,08,51,21.60
2017,08,22,08,52,21.60
2017,08,22,08,53,21.60
2017,08,22,08,54,21.50
2017,08,22,08,55,21.50
2017,08,22,08,56,21.50
2017,08,22,08,57,21.40
2017,08,22,08,58,21.40
2017,08,22,08,59,21.40
2017,08,22,09,00,21.40
2017,08,22,09,01,21.40
2017,08,22,09,02,21.40
2017,08,22,09,03,21.50
2017,08,22,09,04,21.50
2017,08,22,09,05,21.60
2017,08,22,09,06,21.60
2017,08,22,09,07,21.60
2017,08,22,09,08,21.70
2017,08,22,09,09,21.60
2017,08,22,09,10,21.70
2017,08,22,09,11,21.70
2017,08,22,09,12,21.70
2017,08,22,09,13,21.70
2017,08,22,09,14,21.70
2017,08,22,09,15,21.70
2017,08,22,09,16,21.70
2017,08,22,09,17,21.70
2017,08,22,09,18,21.70
2017,08,22,09,19,21.70
2017,08,22,09,20,21.70
2017,08,22,09,21,21.80
2017,08,22,09,22,21.80
2017,08,22,09,23,21.90
2017,08,22,09,24,21.90
2017,08,22,09,25,22.00
2017,08,22,09,26,22.00
2017,08,22,09,27,22.10
2017,08,22,09,28,22.10
2017,08,22,09,29,22.10
2017,08,22,09,30,22.10
2017,08,22,09,31,22.10
2017,08,22,09,32,22.20
2017,08,22,09,33,22.20
2017,08,22,09,34,22.20
2017,08,22,09,35,22.20
2017,08,22,09,36,22.30
2017,08,22,09,37,22.30
2017,08,22,09,38,22.40
2017,08,22,09,39,22.40
2017,08,22,09,40,22.50
2017,08,22,09,41,22.50
2017,08,22,09,42,22.60
2017,08,22,09,43,22.60
2017,08,22,09,44,22.70
2017,08,22,09,45,22.70
2017,08,22,09,46,22.80
2017,08,22,09,47,22.80
2017,08,22,09,48,22.80
2017,08,22,09,49,22.90
2017,08,22,09,50,22.90
2017,08,22,09,51,23.00
2017,08,22,09,52,23.00
2017,08,22,09,53,23.00
2017,08,22,09,54,23.00
2017,08,22,09,55,23.00
2017,08,22,09,56,23.00
2017,08,22,09,57,23.00
2017,08,22,09,58,22.90
2017,08,22,09,59,22.90
2017,08,22,10,00,22.90
2017,08,22,10,01,22.90
2017,08,22,10,02,22.90
2017,08,22,10,03,22.90
2017,08,22,10,04,22.90
2017,08,22,10,05,22.90
2017,08,22,10,06,22.90
2017,08,22,10,07,23.00
2017,08,22,10,08,23.00
2017,08,22,10,09,23.10
2017,08,22,10,10,23.10
2017,08,22,10,11,23.10
2017,08,22,10,12,23.10
2017,08,22,10,13,23.20
2017,08,22,10,14,23.20
2017,08,22,10,15,23.20
2017,08,22,10,16,23.30
2017,08,22,10,17,23.20
2017,08,22,10,18,23.20
2017,08,22,10,19,23.30
2017,08,22,10,20,23.30
2017,08,22,10,21,23.30
2017,08,22,10,22,23.30
2017,08,22,10,23,23.30
2017,08,22,10,24,23.30
2017,08,22,10,25,23.30
2017,08,22,10,26,23.30
2017,08,22,10,27,23.30
2017,08,22,10,28,23.30
2017,08,22,10,29,23.30
2017,08,22,10,30,23.30
2017,08,22,10,31,23.30
2017,08,22,10,32,23.30
2017,08,22,10,33,23.40
2017,08,22,10,34,23.40
2017,08,22,10,35,23.50
2017,08,22,10,36,23.50
2017,08,22,10,37,23.50
2017,08,22,10,38,23.50
2017,08,22,10,39,23.60
2017,08,22,10,40,23.60
2017,08,22,10,41,23.60
2017,08,22,10,42,23.60
2017,08,22,10,43,23.60
2017,08,22,10,44,23.60
2017,08,22,10,45,23.50
2017,08,22,10,46,23.60
2017,08,22,10,47,23.50
2017,08,22,10,48,23.50
2017,08,22,10,49,23.50
2017,08,22,10,50,23.60
2017,08,22,10,51,23.60
2017,08,22,10,52,23.70
2017,08,22,10,53,23.70
2017,08,22,10,54,23.70
2017,08,22,10,55,23.70
2017,08,22,10,56,23.70
2017,08,22,10,57,23.70
2017,08,22,10,58,23.70
2017,08,22,10,59,23.70
2017,08,22,11,00,23.80
2017,08,22,11,01,23.80
2017,08,22,11,02,23.80
2017,08,22,11,03,23.80
2017,08,22,11,04,23.90
2017,08,22,11,05,23.90
2017,08,22,11,06,23.90
2017,08,22,11,07,23.90
2017,08,22,11,08,23.90
2017,08,22,11,09,24.00
2017,08,22,11,10,24.00
2017,08,22,11,11,24.00
2017,08,22,11,12,24.00
2017,08,22,11,13,24.00
2017,08,22,11,14,24.00
2017,08,22,11,15,24.10
2017,08,22,11,16,24.10
2017,08,22,11,17,24.20
2017,08,22,11,18,24.30
2017,08,22,11,19,24.30
2017,08,22,11,20,24.30
2017,08,22,11,21,24.30
2017,08,22,11,22,24.40
2017,08,22,11,23,24.40
2017,08,22,11,24,24.40
2017,08,22,11,25,24.30
2017,08,22,11,26,24.30
2017,08,22,11,27,24.30
2017,08,22,11,28,24.30
2017,08,22,11,29,24.30
2017,08,22,11,30,24.30
2017,08,22,11,31,24.30
2017,08,22,11,32,24.30
2017,08,22,11,33,24.30
2017,08,22,11,34,24.30
2017,08,22,11,35,24.30
2017,08,22,11,36,24.30
2017,08,22,11,37,24.30
2017,08,22,11,38,24.30
2017,08,22,11,39,24.30
2017,08,22,11,40,24.40
2017,08,22,11,41,24.50
2017,08,22,11,42,24.50
2017,08,22,11,43,24.60
2017,08,22,11,44,24.60
2017,08,22,11,45,24.50
2017,08,22,11,46,24.50
2017,08,22,11,47,24.50
2017,08,22,11,48,24.60
2017,08,22,11,49,24.70
2017,08,22,11,50,24.70
2017,08,22,11,51,24.80
2017,08,22,11,52,24.80
2017,08,22,11,53,24.80
2017,08,22,11,54,24.80
2017,08,22,11,55,24.80
2017,08,22,11,56,24.80
2017,08,22,11,57,24.90
2017,08,22,11,58,25.00
2017,08,22,11,59,25.00
2017,08,22,12,00,25.10
2017,08,22,12,01,25.20
2017,08,22,12,02,25.20
2017,08,22,12,03,25.10
2017,08,22,12,04,25.10
2017,08,22,12,05,25.10
2017,08,22,12,06,25.10
2017,08,22,12,07,25.20
2017,08,22,12,08,25.20
2017,08,22,12,09,25.20
2017,08,22,12,10,25.20
2017,08,22,12,11,25.20
2017,08,22,12,12,25.20
2017,08,22,12,13,25.20
2017,08,22,12,14,25.20
2017,08,22,12,15,25.20
2017,08,22,12,16,25.30
2017,08,22,12,17,25.30
2017,08,22,12,18,25.30
2017,08,22,12,19,25.30
2017,08,22,12,20,25.30
2017,08,22,12,21,25.30
2017,08,22,12,22,25.30
2017,08,22,12,23,25.30
2017,08,22,12,24,25.40
2017,08,22,12,25,25.40
2017,08,22,12,26,25.40
2017,08,22,12,27,25.50
2017,08,22,12,28,25.60
2017,08,22,12,29,25.60
2017,08,22,12,30,25.70
2017,08,22,12,31,25.70
2017,08,22,12,32,25.80
2017,08,22,12,33,25.80
2017,08,22,12,34,25.70
2017,08,22,12,35,25.70
2017,08,22,12,36,25.70
2017,08,22,12,37,25.60
2017,08,22,12,38,25.60
2017,08,22,12,39,25.60
2017,08,22,12,40,25.50
2017,08,22,12,41,25.50
2017,08,22,12,42,25.50
2017,08,22,12,43,25.50
2017,08,22,12,44,25.50
2017,08,22,12,45,25.40
2017,08,22,12,46,25.40
2017,08,22,12,47,25.30
2017,08,22,12,48,25.40
2017,08,22,12,49,25.40
2017,08,22,12,50,25.40
2017,08,22,12,51,25.40
2017,08,22,12,52,25.40
2017,08,22,12,53,25.40
2017,08,22,12,54,25.50
2017,08,22,12,55,25.60
2017,08,22,12,56,25.60
2017,08,22,12,57,25.50
2017,08,22,12,58,25.50
2017,08,22,12,59,25.50
2017,08,22,13,00,25.40
2017,08,22,13,01,25.40
2017,08,22,13,02,25.40
2017,08,22,13,03,25.40
2017,08,22,13,04,25.40
2017,08,22,13,05,25.40
2017,08,22,13,06,25.40
2017,08,22,13,07,25.30
2017,08,22,13,08,25.30
2017,08,22,13,09,25.40
2017,08,22,13,10,25.50
2017,08,22,13,11,25.60
2017,08,22,13,12,25.60
2017,08,22,13,13,25.60
2017,08,22,13,14,25.60
2017,08,22,13,15,25.60
2017,08,22,13,16,25.60
2017,08,22,13,17,25.60
2017,08,22,13,18,25.60
2017,08,22,13,19,25.60
2017,08,22,13,20,25.60
2017,08,22,13,21,25.60
2017,08,22,13,22,25.60
2017,08,22,13,23,25.60
2017,08,22,13,24,25.70
2017,08,22,13,25,25.70
2017,08,22,13,26,25.70
2017,08,22,13,27,25.60
2017,08,22,13,28,25.70
2017,08,22,13,29,25.70
2017,08,22,13,30,25.70
2017,08,22,13,31,25.70
2017,08,22,13,32,25.70
2017,08,22,13,33,25.80
2017,08,22,13,34,25.80
2017,08,22,13,35,25.90
2017,08,22,13,36,25.90
2017,08,22,13,37,25.90
2017,08,22,13,38,25.90
2017,08,22,13,39,25.90
2017,08,22,13,40,25.90
2017,08,22,13,41,25.90
2017,08,22,13,42,26.00
2017,08,22,13,43,26.00
2017,08,22,13,44,26.00
2017,08,22,13,45,25.90
2017,08,22,13,46,25.90
2017,08,22,13,47,25.90
2017,08,22,13,48,25.90
2017,08,22,13,49,25.90
2017,08,22,13,50,25.90
2017,08,22,13,51,25.90
2017,08,22,13,52,25.90
2017,08,22,13,53,25.90
2017,08,22,13,54,25.90
2017,08,22,13,55,25.90
2017,08,22,13,56,26.00
2017,08,22,13,57,26.00
2017,08,22,13,58,26.00
2017,08,22,13,59,26.00
2017,08,22,14,00,26.10
2017,08,22,14,01,26.10
2017,08,22,14,02,26.20
2017,08,22,14,03,26.20
2017,08,22,14,04,26.30
2017,08,22,14,05,26.30
2017,08,22,14,06,26.30
2017,08,22,14,07,26.30
2017,08,22,14,08,26.30
2017,08,22,14,09,26.20
2017,08,22,14,10,26.20
2017,08,22,14,11,26.20
2017,08,22,14,12,26.20
2017,08,22,14,13,26.20
2017,08,22,14,14,26.20
2017,08,22,14,15,26.30
2017,08,22,14,16,26.30
2017,08,22,14,17,26.30
2017,08,22,14,18,26.30
2017,08,22,14,19,26.30
2017,08,22,14,20,26.30
2017,08,22,14,21,26.40
2017,08,22,14,22,26.40
2017,08,22,14,23,26.40
2017,08,22,14,24,26.50
2017,08,22,14,25,26.60
2017,08,22,14,26,26.70
2017,08,22,14,27,26.70
2017,08,22,14,28,26.80
2017,08,22,14,29,26.80
2017,08,22,14,30,26.80
2017,08,22,14,31,26.70
2017,08,22,14,32,26.70
2017,08,22,14,33,26.70
2017,08,22,14,34,26.80
2017,08,22,14,35,26.80
2017,08,22,14,36,26.90
2017,08,22,14,37,26.90
2017,08,22,14,38,26.90
2017,08,22,14,39,26.90
2017,08,22,14,40,26.90
2017,08,22,14,41,26.90
2017,08,22,14,42,26.90
2017,08,22,14,43,26.90
2017,08,22,14,44,26.90
2017,08,22,14,45,26.80
2017,08,22,14,46,26.80
2017,08,22,14,47,26.80
2017,08,22,14,48,26.80
2017,08,22,14,49,26.70
2017,08,22,14,50,26.80
2017,08,22,14,51,26.70
2017,08,22,14,52,26.80
2017,08,22,14,53,26.80
2017,08,22,14,54,26.70
2017,08,22,14,55,26.70
2017,08,22,14,56,26.80
2017,08,22,14,57,26.80
2017,08,22,14,58,26.70
2017,08,22,14,59,26.70
2017,08,22,15,00,26.70
2017,08,22,15,01,26.80
2017,08,22,15,02,26.80
2017,08,22,15,03,26.80
2017,08,22,15,04,26.80
2017,08,22,15,05,26.90
2017,08,22,15,06,26.90
2017,08,22,15,07,26.90
2017,08,22,15,08,26.90
2017,08,22,15,09,26.80
2017,08,22,15,10,26.80
2017,08,22,15,11,26.80
2017,08,22,15,12,26.80
2017,08,22,15,13,26.80
2017,08,22,15,14,26.80
2017,08,22,15,15,26.80
2017,08,22,15,16,26.80
2017,08,22,15,17,26.80
2017,08,22,15,18,26.80
2017,08,22,15,19,26.80
2017,08,22,15,20,26.80
2017,08,22,15,21,26.90
2017,08,22,15,22,26.90
2017,08,22,15,23,27.00
2017,08,22,15,24,27.00
2017,08,22,15,25,27.10
2017,08,22,15,26,27.20
2017,08,22,15,27,27.20
2017,08,22,15,28,27.30
2017,08,22,15,29,27.30
2017,08,22,15,30,27.30
2017,08,22,15,31,27.30
2017,08,22,15,32,27.30
2017,08,22,15,33,27.40
2017,08,22,15,34,27.40
2017,08,22,15,35,27.40
2017,08,22,15,36,27.50
2017,08,22,15,37,27.50
2017,08,22,15,38,27.50
2017,08,22,15,39,27.60
2017,08,22,15,40,27.60
2017,08,22,15,41,27.60
2017,08,22,15,42,27.60
2017,08,22,15,43,27.70
2017,08,22,15,44,27.80
2017,08,22,15,45,27.80
2017,08,22,15,46,27.80
2017,08,22,15,47,27.90
2017,08,22,15,48,27.90
2017,08,22,15,49,28.00
2017,08,22,15,50,28.00
2017,08,22,15,51,28.10
2017,08,22,15,52,28.10
2017,08,22,15,53,28.20
2017,08,22,15,54,28.20
2017,08,22,15,55,28.20
2017,08,22,15,56,28.20
2017,08,22,15,57,28.30
2017,08,22,15,58,28.30
2017,08,22,15,59,28.40
2017,08,22,16,00,28.40
2017,08,22,16,01,28.40
2017,08,22,16,02,28.40
2017,08,22,16,03,28.40
2017,08,22,16,04,28.50
2017,08,22,16,05,28.40
2017,08,22,16,06,28.40
2017,08,22,16,07,28.40
2017,08,22,16,08,28.30
2017,08,22,16,09,28.30
2017,08,22,16,10,28.30
2017,08,22,16,11,28.30
2017,08,22,16,12,28.20
2017,08,22,16,13,28.20
2017,08,22,16,14,28.20
2017,08,22,16,15,28.20
2017,08,22,16,16,28.20
2017,08,22,16,17,28.20
2017,08,22,16,18,28.20
2017,08,22,16,19,28.20
2017,08,22,16,20,28.20
2017,08,22,16,21,28.20
2017,08,22,16,22,28.30
2017,08,22,16,23,28.30
2017,08,22,16,24,28.30
2017,08,22,16,25,28.30
2017,08,22,16,26,28.30
2017,08,22,16,27,28.20
2017,08,22,16,28,28.20
2017,08,22,16,29,28.20
2017,08,22,16,30,28.20
2017,08,22,16,31,28.20
2017,08,22,16,32,28.20
2017,08,22,16,33,28.20
2017,08,22,16,34,28.20
2017,08,22,16,35,28.20
2017,08,22,16,36,28.20
2017,08,22,16,37,28.10
2017,08,22,16,38,28.00
2017,08,22,16,39,28.00
2017,08,22,16,40,27.90
2017,08,22,16,41,27.90
2017,08,22,16,42,27.90
2017,08,22,16,43,27.90
2017,08,22,16,44,27.90
2017,08,22,16,45,28.00
2017,08,22,16,46,28.00
2017,08,22,16,47,28.00
2017,08,22,16,48,28.10
2017,08,22,16,49,28.10
2017,08,22,16,50,28.20
2017,08,22,16,51,28.20
2017,08,22,16,52,28.20
2017,08,22,16,53,28.30
2017,08,22,16,54,28.30
2017,08,22,16,55,28.40
2017,08,22,16,56,28.40
2017,08,22,16,57,28.50
2017,08,22,16,58,28.60
2017,08,22,16,59,28.60
2017,08,22,17,00,28.60
2017,08,22,17,01,28.60
2017,08,22,17,02,28.60
2017,08,22,17,03,28.70
2017,08,22,17,04,28.70
2017,08,22,17,05,28.70
2017,08,22,17,06,28.60
2017,08,22,17,07,28.60
2017,08,22,17,08,28.60
2017,08,22,17,09,28.60
2017,08,22,17,10,28.60
2017,08,22,17,11,28.70
2017,08,22,17,12,28.60
2017,08,22,17,13,28.60
2017,08,22,17,14,28.60
2017,08,22,17,15,28.60
2017,08,22,17,16,28.60
2017,08,22,17,17,28.60
2017,08,22,17,18,28.50
2017,08,22,17,19,28.40